Tracking 30923 objects as of 1-Jul-2025
HD Live streaming from Space Station
objects crossing your sky now

SL-12 R/B(2)

Track SL-12 R/B(2) now!


NORAD ID: 22966
Int'l Code: 1994-002D
Perigee: 35,835.9 km
Apogee: 36,202.9 km
Inclination: 14.1 °
Period: 1,447.6 minutes
Semi major axis: 42390 km
RCS: 2.5179 m2 (large)
Launch date: January 20, 1994
Source: Commonwealth of Independent States (former USSR) (CIS)
Launch site: TYURATAM MISSILE AND SPACE COMPLEX (TTMTR)

Note: This is a ROCKET BODY
Your satellite tracking list
Your tracking list is empty




NASA's NSSDC Master Catalog

Two Line Element Set (TLE):
1 22966U 94002D   25181.21072330 -.00000166  00000-0  00000-0 0  9999
2 22966  14.1497 346.6467 0043291 139.1764 228.1691  0.99472083113588
Source of the keplerian elements: AFSPC